Wind_Speed
56 58 59 61 62 63 63 64 64 64 65 66 68 67 62 55 52 52 54 57 59 63 68 72 76 80 83 84 87 91 96 101 100 96 103 107 114 120 125 125 123 120 113
57 60 62 63 64 64 66 66 66 67 67 67 68 68 62 56 52 53 55 58 62 68 73 78 83 86 88 89 91 94 97 100 100 92 89 96 101 109 118 124 126 126 121
59 63 66 66 66 67 67 66 67 70 69 67 70 70 62 57 55 56 59 62 66 71 76 82 87 90 93 95 99 101 101 98 93 86 80 86 90 98 103 111 115 116 119
63 66 68 68 69 68 67 68 69 70 70 68 72 71 65 60 56 59 63 66 70 76 82 87 91 94 97 99 100 98 94 91 86 82 82 80 83 86 89 97 108 113 114
68 70 70 70 71 70 70 69 69 72 71 72 74 73 66 62 57 57 62 67 73 81 86 91 94 97 100 99 93 93 88 84 81 77 76 74 74 73 78 84 90 94 100
70 72 73 73 73 73 73 71 70 73 72 75 77 75 69 64 59 58 63 70 78 84 89 92 96 99 96 95 95 91 84 80 76 68 66 68 67 63 67 75 78 80 84
74 76 76 75 76 76 74 73 71 73 75 77 79 77 71 67 61 62 68 76 83 87 89 93 98 97 92 92 92 87 84 82 76 61 56 61 61 55 58 65 68 70 76
78 77 77 78 78 78 73 72 72 75 77 80 82 78 73 67 62 65 74 82 87 90 92 95 95 93 93 91 87 81 80 78 72 64 53 52 52 51 50 55 56 61 69
79 79 79 79 80 79 73 72 73 76 78 81 82 79 73 66 65 71 79 86 89 92 96 95 91 93 93 91 84 78 74 70 67 61 51 45 47 45 46 48 47 55 65
82 80 81 81 81 77 74 73 74 77 80 82 84 78 71 66 70 78 84 86 90 94 96 94 92 93 92 90 82 77 72 66 59 55 52 44 41 41 42 42 43 50 59
82 82 83 82 81 77 73 73 75 77 81 84 82 77 68 69 77 83 86 89 91 93 92 89 94 94 94 89 82 77 72 64 55 49 45 42 40 39 40 39 40 45 53
83 81 83 82 80 77 74 73 75 78 82 84 81 74 69 75 82 86 89 91 92 90 87 89 90 91 92 84 79 77 71 63 54 46 43 40 38 37 37 36 37 42 49
83 83 84 82 80 76 73 73 75 79 82 80 77 71 74 80 86 88 90 91 91 90 90 89 89 91 88 79 75 74 68 61 54 47 41 39 36 34 34 34 35 39 46
83 83 83 81 78 75 73 73 76 79 80 77 71 72 78 84 87 89 90 91 90 90 89 89 90 92 85 78 73 73 67 57 51 46 41 37 34 32 30 30 33 37 42
82 83 81 78 76 74 73 74 76 78 76 72 71 74 80 85 87 89 88 86 84 85 85 87 90 90 84 78 74 71 67 57 50 44 39 35 32 30 27 27 30 34 40
82 80 78 76 75 73 74 75 76 75 70 68 71 76 80 82 85 86 87 85 84 84 86 87 91 87 81 75 72 71 66 57 51 43 39 35 30 27 25 25 27 31 36
81 79 76 75 73 72 74 76 75 69 64 68 73 77 79 82 86 87 86 84 85 86 87 89 88 82 77 71 69 68 64 56 50 43 38 33 29 26 24 23 26 28 33
75 75 73 72 70 72 74 74 70 66 67 70 74 78 81 84 86 86 85 85 87 87 88 90 86 81 74 69 68 68 62 54 49 43 37 32 28 26 24 22 25 26 30
72 70 69 68 69 71 71 67 63 64 69 74 78 79 83 85 87 87 84 84 86 87 90 90 84 79 71 66 66 66 61 55 48 42 37 32 28 25 23 22 24 26 27
67 66 66 67 68 68 65 60 60 64 69 73 77 81 85 86 88 89 88 87 87 88 91 88 83 76 68 65 65 64 59 55 47 42 36 31 27 25 22 21 22 24 25
64 63 64 66 66 62 58 57 61 65 71 75 80 80 80 82 86 88 88 85 85 88 89 85 80 72 64 63 65 63 57 53 47 41 35 30 26 24 22 21 20 23 25
61 63 64 64 60 55 53 58 61 68 74 78 79 80 80 83 86 87 87 84 87 87 84 81 75 66 62 62 64 63 56 50 46 40 34 29 25 22 20 19 19 22 24
61 61 61 57 51 50 54 58 64 71 75 77 78 80 83 85 87 88 86 86 87 86 82 76 69 64 60 61 62 61 56 49 43 39 33 28 24 21 19 18 18 20 24
58 57 53 46 47 51 56 61 67 72 74 76 77 81 83 84 86 86 85 87 87 84 79 71 65 61 60 62 62 59 53 48 42 37 32 27 23 21 18 17 17 18 22
53 47 41 44 48 53 59 64 67 70 73 75 78 80 82 84 85 83 85 87 86 81 74 66 62 60 61 63 62 57 51 46 40 36 30 26 22 21 19 16 16 16 19
40 37 41 45 50 55 58 61 65 68 71 74 77 79 82 83 82 82 86 86 83 77 69 64 62 61 62 63 61 55 49 44 38 34 29 25 22 20 18 15 14 15 17
Wind_Direction
318 315 314 316 317 317 318 320 320 321 322 321 325 321 314 304 295 287 284 283 285 289 289 289 294 297 295 292 289 284 280 276 271 266 265 262 259 257 257 255 253 250 246
320 319 319 320 319 317 319 319 320 321 322 322 323 323 316 305 293 287 285 286 288 290 291 295 300 302 302 302 298 293 288 285 281 277 272 267 262 257 255 254 253 251 248
320 320 320 320 319 318 319 319 320 321 321 321 323 323 317 307 293 287 286 288 292 295 300 304 305 306 307 305 302 300 298 295 290 286 279 270 264 259 254 253 252 248 247
321 321 322 320 320 320 321 320 321 321 321 322 322 322 318 311 299 291 291 293 298 303 307 308 309 309 308 306 305 303 300 297 293 290 284 276 270 263 257 252 249 248 246
320 322 323 322 322 322 322 320 321 322 321 322 323 323 319 313 305 297 296 300 304 308 311 312 312 311 310 309 309 306 303 299 298 294 289 281 272 266 259 254 251 248 245
320 322 322 321 322 322 321 320 321 323 321 323 324 323 320 316 308 303 303 306 308 311 314 314 313 312 314 314 314 311 306 304 301 298 290 282 276 267 260 255 251 248 241
320 321 320 320 320 321 320 320 321 322 323 324 324 323 320 316 310 308 309 310 313 315 316 316 315 316 317 317 317 314 311 309 306 302 292 284 278 270 261 256 251 247 242
319 320 319 320 320 320 319 320 320 321 323 325 324 322 319 315 311 311 313 315 318 317 318 318 319 319 319 320 319 317 315 312 309 305 297 286 278 273 264 258 251 243 239
317 319 318 320 320 318 318 320 319 320 321 323 324 321 319 315 314 315 317 319 319 320 320 320 322 322 321 321 321 319 319 315 311 306 298 288 280 274 267 260 251 243 236
317 317 318 319 319 318 318 318 318 319 321 321 322 320 318 316 316 318 321 321 321 322 322 324 323 323 323 325 323 322 322 317 313 308 303 295 285 278 269 262 250 242 237
314 316 316 318 318 318 317 317 317 318 319 321 321 319 318 318 319 322 322 323 324 323 325 325 325 325 326 327 326 325 324 319 316 309 303 298 291 282 271 261 251 242 237
315 314 316 317 318 317 316 316 317 318 319 321 319 319 319 320 323 323 324 325 324 325 326 326 327 327 328 328 327 326 325 321 319 314 309 303 295 284 272 261 251 242 236
312 313 314 316 317 316 315 315 316 317 319 320 319 319 321 323 324 325 326 325 326 327 328 328 329 330 329 328 328 328 327 324 321 317 313 307 298 285 273 261 249 241 236
312 312 313 315 316 315 314 316 316 318 320 319 320 321 323 324 325 326 326 326 327 328 329 329 331 332 331 330 330 329 327 325 324 321 317 310 299 286 273 262 249 241 235
311 311 313 315 314 314 314 315 315 319 319 319 320 323 325 325 327 327 327 327 328 328 329 331 334 333 333 332 331 331 329 328 326 323 318 310 300 290 277 264 253 243 237
308 310 312 313 313 313 314 314 317 318 319 319 321 324 325 326 328 329 328 329 330 330 331 333 335 334 334 332 331 332 330 329 327 325 321 313 305 295 281 267 254 246 237
306 309 311 313 312 312 312 314 317 318 319 321 323 325 326 326 329 330 330 331 332 331 333 334 336 336 334 331 332 333 331 330 328 326 322 315 308 299 284 272 256 247 239
306 308 310 311 311 311 312 316 317 318 322 323 324 325 326 327 329 331 331 332 332 332 334 335 336 336 335 331 332 333 331 331 329 327 324 318 311 303 289 276 263 247 239
306 308 309 309 309 310 315 316 317 320 323 324 325 325 327 328 330 331 332 333 332 333 334 335 336 336 334 332 333 334 333 330 330 328 325 319 314 306 293 279 268 249 239
306 307 307 307 308 313 315 315 318 321 322 323 322 324 326 328 331 332 333 333 333 334 335 335 335 335 334 332 333 334 333 330 330 328 326 321 316 308 296 282 271 254 237
306 307 306 306 311 313 314 316 319 321 322 322 323 325 326 329 331 332 332 332 333 335 335 334 334 334 333 332 333 333 334 331 330 328 326 322 317 309 297 284 271 258 239
305 304 305 309 312 312 314 317 319 321 321 323 325 325 328 330 331 332 332 333 334 335 335 335 334 334 333 333 334 333 333 331 329 327 325 321 316 308 297 282 269 256 242
302 305 308 311 311 312 315 317 320 320 321 324 325 326 329 330 330 332 332 333 335 335 335 335 334 333 333 333 334 333 332 331 329 326 324 320 314 306 295 280 266 255 245
305 309 310 310 311 313 316 319 319 320 323 324 325 327 328 329 330 331 332 334 335 335 335 335 334 334 333 334 334 333 332 330 328 325 323 318 313 304 293 281 264 253 247
308 309 308 309 312 316 319 319 320 322 324 325 326 327 328 329 330 331 333 334 335 335 335 335 334 334 333 334 334 332 331 329 327 323 320 315 310 302 295 284 268 252 243
306 307 310 313 317 319 320 321 322 324 325 327 327 328 328 329 331 332 334 334 334 334 335 335 334 334 333 333 333 331 330 327 326 320 318 312 308 302 295 286 273 254 238
Height
10604 10597 10589 10581 10572 10563 10553 10544 10534 10524 10513 10501 10489 10478 10467 10457 10451 10447 10444 10440 10436 10431 10425 10417 10408 10399 10388 10376 10365 10353 10343 10332 10333 10345 10323 10316 10308 10300 10292 10294 10303 10313 10329
10593 10585 10577 10569 10559 10550 10541 10531 10521 10510 10499 10487 10476 10465 10454 10445 10438 10432 10428 10424 10418 10411 10403 10393 10382 10369 10354 10341 10327 10312 10299 10285 10276 10284 10283 10260 10251 10249 10246 10242 10253 10264 10281
10581 10573 10565 10556 10546 10536 10526 10516 10505 10495 10484 10473 10462 10451 10441 10431 10424 10418 10412 10406 10398 10390 10381 10368 10353 10338 10323 10308 10290 10274 10257 10242 10228 10226 10229 10214 10207 10199 10200 10199 10202 10216 10229
10569 10560 10551 10541 10531 10521 10511 10501 10490 10480 10468 10459 10448 10436 10425 10416 10408 10400 10394 10386 10377 10366 10355 10339 10324 10309 10292 10275 10257 10236 10219 10204 10191 10185 10177 10172 10157 10153 10156 10155 10157 10167 10183
10556 10546 10537 10526 10516 10506 10496 10486 10476 10465 10453 10443 10432 10420 10409 10398 10390 10382 10374 10366 10355 10342 10328 10311 10295 10278 10259 10239 10224 10202 10184 10169 10157 10149 10136 10128 10118 10120 10117 10116 10123 10132 10151
10541 10532 10522 10511 10501 10492 10482 10471 10460 10449 10438 10427 10415 10402 10390 10380 10371 10363 10355 10345 10333 10319 10304 10284 10266 10249 10230 10208 10186 10164 10146 10136 10127 10117 10104 10093 10086 10087 10087 10085 10093 10103 10118
10527 10517 10507 10496 10486 10476 10466 10455 10443 10432 10421 10410 10398 10385 10373 10363 10353 10345 10335 10324 10310 10295 10280 10261 10238 10219 10203 10186 10163 10138 10117 10099 10089 10089 10079 10064 10057 10059 10057 10058 10065 10078 10085
10512 10502 10492 10481 10471 10460 10450 10439 10427 10416 10404 10393 10381 10369 10357 10347 10337 10328 10316 10301 10286 10270 10254 10236 10215 10193 10175 10160 10142 10122 10101 10080 10066 10056 10051 10042 10035 10034 10034 10035 10043 10050 10056
10496 10487 10476 10466 10456 10446 10435 10424 10412 10400 10389 10378 10366 10353 10341 10330 10321 10311 10298 10282 10263 10245 10227 10208 10191 10170 10152 10136 10115 10099 10083 10064 10046 10034 10028 10023 10016 10014 10013 10015 10023 10026 10027
10481 10472 10462 10452 10441 10430 10419 10409 10397 10385 10373 10361 10350 10338 10326 10314 10304 10293 10280 10264 10246 10227 10204 10184 10164 10148 10129 10110 10091 10075 10060 10046 10034 10018 10006 10002 9998 9996 9995 9997 10002 10003 10007
10466 10457 10447 10437 10425 10414 10404 10393 10382 10370 10358 10346 10333 10322 10311 10300 10288 10274 10259 10244 10227 10207 10188 10167 10145 10124 10105 10086 10067 10052 10038 10027 10016 10004 9993 9985 9981 9978 9978 9980 9984 9987 9990
10451 10440 10431 10421 10410 10399 10389 10379 10368 10355 10343 10330 10316 10305 10295 10283 10271 10255 10239 10223 10205 10190 10172 10153 10133 10112 10090 10071 10053 10036 10022 10009 9998 9988 9978 9970 9966 9962 9962 9964 9967 9970 9971
10434 10425 10415 10405 10395 10384 10374 10364 10353 10341 10328 10315 10302 10290 10278 10267 10253 10237 10220 10203 10184 10167 10149 10133 10116 10097 10075 10057 10041 10024 10009 9995 9983 9973 9965 9957 9952 9949 9948 9949 9952 9954 9957
10419 10409 10399 10390 10380 10370 10360 10349 10338 10326 10313 10301 10290 10278 10264 10251 10236 10221 10204 10186 10167 10149 10133 10115 10097 10078 10058 10041 10026 10009 9994 9983 9971 9960 9952 9945 9939 9936 9935 9936 9937 9940 9943
10403 10394 10384 10374 10364 10354 10344 10334 10323 10312 10300 10287 10277 10266 10253 10236 10220 10204 10190 10174 10157 10140 10122 10103 10083 10061 10040 10022 10009 9996 9980 9969 9958 9950 9942 9934 9929 9925 9924 9924 9925 9927 9930
10386 10378 10368 10359 10349 10339 10329 10319 10309 10297 10287 10276 10266 10254 10241 10227 10210 10192 10173 10157 10140 10123 10105 10088 10069 10049 10030 10014 9998 9983 9969 9957 9947 9938 9930 9923 9918 9914 9912 9912 9913 9916 9919
10370 10362 10353 10344 10334 10324 10313 10302 10292 10283 10275 10265 10251 10238 10225 10210 10194 10177 10159 10140 10125 10108 10090 10074 10057 10038 10019 10003 9990 9975 9959 9948 9937 9928 9920 9913 9908 9904 9902 9901 9903 9905 9908
10354 10346 10338 10329 10319 10309 10298 10287 10277 10267 10258 10249 10237 10223 10208 10194 10179 10163 10145 10126 10108 10091 10075 10058 10040 10024 10008 9992 9978 9964 9950 9939 9928 9919 9911 9905 9899 9895 9892 9891 9893 9895 9898
10338 10331 10323 10314 10304 10294 10285 10275 10265 10256 10244 10232 10218 10206 10192 10178 10163 10147 10131 10115 10097 10079 10061 10043 10027 10011 9996 9982 9968 9955 9941 9928 9920 9911 9903 9896 9891 9886 9883 9882 9883 9885 9887
10323 10316 10308 10298 10289 10281 10271 10263 10255 10245 10234 10223 10210 10195 10178 10162 10145 10127 10111 10097 10081 10065 10047 10029 10013 9998 9984 9971 9958 9945 9932 9919 9911 9902 9895 9888 9883 9878 9875 9873 9873 9876 9878
10308 10300 10292 10284 10276 10268 10259 10252 10243 10232 10220 10209 10196 10183 10168 10153 10135 10118 10101 10087 10073 10056 10036 10018 10002 9987 9974 9961 9948 9935 9924 9911 9901 9894 9886 9880 9875 9870 9867 9865 9865 9867 9869
10292 10285 10278 10271 10264 10256 10249 10240 10231 10219 10208 10194 10180 10167 10153 10138 10122 10105 10088 10073 10058 10043 10026 10007 9990 9977 9964 9952 9937 9924 9913 9903 9893 9885 9879 9873 9867 9863 9860 9858 9858 9859 9861
10278 10272 10265 10259 10251 10245 10238 10229 10218 10207 10195 10181 10167 10152 10137 10122 10106 10090 10074 10059 10043 10027 10011 9996 9980 9965 9954 9942 9930 9916 9903 9893 9885 9877 9871 9866 9861 9857 9854 9852 9851 9852 9854
10265 10260 10254 10247 10242 10235 10226 10217 10207 10195 10181 10168 10154 10139 10124 10109 10093 10077 10060 10045 10028 10012 9998 9983 9969 9956 9944 9931 9918 9906 9894 9885 9876 9869 9864 9859 9854 9850 9848 9846 9845 9845 9848
10255 10249 10244 10239 10232 10224 10215 10206 10194 10181 10168 10154 10140 10125 10110 10095 10079 10063 10047 10031 10014 9999 9984 9971 9958 9945 9933 9921 9908 9897 9886 9876 9868 9862 9857 9852 9848 9844 9841 9840 9839 9839 9841
10245 10240 10236 10229 10222 10213 10204 10193 10181 10168 10154 10140 10126 10111 10096 10081 10065 10050 10034 10017 10001 9986 9972 9960 9947 9935 9923 9911 9898 9887 9878 9869 9861 9854 9850 9845 9841 9838 9836 9834 9834 9834 9835